This is the latest recevied weather packets stored in our database for station/object KB3HLL. If no packets are shown the sender has not sent any weather packets the latest 10 day(s).
| Time | Temp. | Humidity | Pressure | Rain* | Wind** | Luminosity | Snow |
|---|---|---|---|---|---|---|---|
| 1777562479 | 8.33° C | 88% | 1010 hPa | 0 mm | - | 596 W/m² | - |
| 1777562178 | 8.33° C | 92% | 1010 hPa | 0 mm | - | 1111 W/m² | - |
| 1777561878 | 8.33° C | 88% | 1009.9 hPa | 0 mm | - | 387 W/m² | - |
| 1777561578 | 8.33° C | 91% | 1009.9 hPa | 0 mm | - | 466 W/m² | - |
| 1777561278 | 8.33° C | 90% | 1009.6 hPa | 0 mm | - | 766 W/m² | - |
| 1777560978 | 7.78° C | 89% | 1009.8 hPa | 0 mm | - | 821 W/m² | - |
| 1777560681 | 7.22° C | 93% | 1009.8 hPa | 0 mm | - | 409 W/m² | - |
| 1777560378 | 6.67° C | 100% | 1008.7 hPa | 0 mm | - | 955 W/m² | - |
| 1777560078 | 6.11° C | 100% | 1007.2 hPa | 0 mm | - | 547 W/m² | - |
| 1777559779 | 6.67° C | 100% | 1006.9 hPa | 0 mm | - | 790 W/m² | - |
| 1777559478 | 6.11° C | 100% | 1006.5 hPa | 0 mm | - | 763 W/m² | - |
| 1777559180 | 6.11° C | 100% | 1006.8 hPa | 0 mm | - | 835 W/m² | - |
| 1777558880 | 5.56° C | 100% | 1007.6 hPa | 0 mm | - | 437 W/m² | - |
| 1777558580 | 5° C | 100% | 1007.5 hPa | 0 mm | - | 717 W/m² | - |
| 1777558283 | 5° C | 100% | 1007.1 hPa | 0 mm | - | 756 W/m² | - |
| 1777557978 | 5° C | 100% | 1007 hPa | 0 mm | - | 328 W/m² | - |
| 1777557679 | 5° C | 100% | 1007.2 hPa | 0 mm | - | 281 W/m² | - |
| 1777557380 | 5° C | 100% | 1007.3 hPa | 0 mm | - | 194 W/m² | - |
| 1777557079 | 5° C | 100% | 1007.5 hPa | 0 mm | - | 180 W/m² | - |
| 1777556779 | 5° C | 100% | 1007.7 hPa | 0 mm | - | 139 W/m² | - |
| 1777556479 | 5° C | 100% | 1007.8 hPa | 0 mm | - | 116 W/m² | - |
| 1777556179 | 5° C | 100% | 1007.8 hPa | 0 mm | - | 113 W/m² | - |
| 1777555878 | 5° C | 100% | 1008.2 hPa | 0 mm | - | 188 W/m² | - |
| 1777555580 | 5° C | 100% | 1008.5 hPa | 0 mm | - | 230 W/m² | - |
| 1777555278 | 5° C | 100% | 1008.3 hPa | 0 mm | - | 205 W/m² | - |
* Rain latest hour (hover to see other rain measurements)
** Current wind speed in m/s (hover to see current wind gust speed)